When you browse on this site, cookies collect data to enhance your experience and personalize the content and advertising you see.
Visit our Privacy Policy to learn more. By continuing to use the site, you agree to this use of cookies and data.
  • In Latvia
  • List of Countries
  • For 7 days
  • Water Temperature
  • Satellite Maps
  • Weather Map
  • Weather Widgets
  • user-avatar
    Login

    Hourly Weather Morges

    Today, 17 July, Wednesday

    Time Temperature Precipitation Wind Pressure Humidity
    00:00 +18°C° 0 mm 1 mps 725 mmHg 79%
    01:00 +18°C° 0 mm 1 mps 724 mmHg 79%
    02:00 +18°C° 0 mm 1 mps 724 mmHg 80%
    03:00 +16°C° 0 mm 1 mps 724 mmHg 80%
    04:00 +17°C° 0 mm 0 mps 724 mmHg 77%
    05:00 +18°C° 0 mm 0 mps 724 mmHg 74%
    06:00 +19°C° 0 mm 0 mps 724 mmHg 69%
    07:00 +21°C° 0 mm 0 mps 724 mmHg 65%
    08:00 +24°C° 0 mm 1 mps 724 mmHg 60%
    09:00 +26°C° 0 mm 1 mps 724 mmHg 55%
    10:00 +27°C° 0 mm 1 mps 724 mmHg 53%
    11:00 +27°C° 0 mm 1 mps 724 mmHg 50%
    12:00 +28°C° 0 mm 1 mps 724 mmHg 48%
    13:00 +28°C° 0 mm 1 mps 724 mmHg 47%
    14:00 +28°C° 0 mm 1 mps 723 mmHg 47%
    15:00 +28°C° 0 mm 1 mps 723 mmHg 46%
    16:00 +27°C° 0 mm 1 mps 723 mmHg 53%
    17:00 +25°C° 0 mm 1 mps 723 mmHg 60%
    18:00 +24°C° 0 mm 1 mps 723 mmHg 67%
    19:00 +22°C° 0 mm 1 mps 723 mmHg 69%
    20:00 +21°C° 0 mm 1 mps 723 mmHg 71%
    21:00 +19°C° 0 mm 1 mps 723 mmHg 73%
    22:00 +19°C° 0 mm 1 mps 723 mmHg 73%
    23:00 +18°C° 0 mm 1 mps 723 mmHg 73%

    Tomorrow, 18 July, Thursday

    Time Temperature Precipitation Wind Pressure Humidity
    00:00 +18°C° 0 mm 1 mps 723 mmHg 73%
    01:00 +18°C° 0 mm 1 mps 723 mmHg 72%
    02:00 +18°C° 0 mm 1 mps 723 mmHg 72%
    03:00 +16°C° 0 mm 0 mps 723 mmHg 71%
    04:00 +17°C° 0 mm 0 mps 723 mmHg 71%
    05:00 +18°C° 0 mm 0 mps 723 mmHg 70%
    06:00 +19°C° 0 mm 0 mps 723 mmHg 70%
    07:00 +21°C° 0 mm 0 mps 723 mmHg 64%
    08:00 +24°C° 0 mm 1 mps 723 mmHg 58%
    09:00 +26°C° 0 mm 1 mps 723 mmHg 52%
    10:00 +26°C° 0 mm 1 mps 723 mmHg 51%
    11:00 +26°C° 0 mm 1 mps 723 mmHg 51%
    12:00 +26°C° 0 mm 1 mps 723 mmHg 51%
    13:00 +26°C° 0 mm 1 mps 723 mmHg 51%
    14:00 +27°C° 0 mm 1 mps 723 mmHg 52%
    15:00 +27°C° 0 mm 1 mps 723 mmHg 53%
    16:00 +26°C° 0 mm 1 mps 723 mmHg 59%
    17:00 +25°C° 0 mm 1 mps 723 mmHg 65%
    18:00 +24°C° 0 mm 1 mps 723 mmHg 72%
    19:00 +23°C° 0 mm 1 mps 724 mmHg 74%
    20:00 +21°C° 0 mm 1 mps 724 mmHg 75%
    21:00 +18°C° 0 mm 0 mps 725 mmHg 77%
    22:00 +20°C° 0 mm 1 mps 725 mmHg 81%
    23:00 +19°C° 0 mm 1 mps 725 mmHg 84%

    Day after tomorrow, 19 July, Friday

    Time Temperature Precipitation Wind Pressure Humidity
    00:00 +18°C° 0 mm 1 mps 725 mmHg 87%
    01:00 +18°C° 0 mm 1 mps 725 mmHg 89%
    02:00 +16°C° 0 mm 1 mps 725 mmHg 90%
    03:00 +16°C° 0 mm 1 mps 725 mmHg 91%
    04:00 +18°C° 0 mm 1 mps 725 mmHg 88%
    05:00 +17°C° 0 mm 0 mps 725 mmHg 86%
    06:00 +18°C° 0 mm 0 mps 725 mmHg 83%
    07:00 +20°C° 0 mm 0 mps 725 mmHg 76%
    08:00 +23°C° 0 mm 1 mps 725 mmHg 69%
    09:00 +25°C° 0 mm 1 mps 725 mmHg 62%
    10:00 +26°C° 0 mm 1 mps 725 mmHg 60%
    11:00 +26°C° 0 mm 1 mps 725 mmHg 57%
    12:00 +27°C° 0 mm 1 mps 725 mmHg 55%
    13:00 +27°C° 0 mm 1 mps 725 mmHg 54%
    14:00 +27°C° 0 mm 1 mps 725 mmHg 54%
    15:00 +28°C° 0 mm 1 mps 724 mmHg 54%
    16:00 +27°C° 0 mm 1 mps 725 mmHg 59%
    17:00 +26°C° 0 mm 1 mps 725 mmHg 65%
    18:00 +25°C° 0 mm 1 mps 725 mmHg 71%
    19:00 +23°C° 0 mm 1 mps 725 mmHg 74%
    20:00 +22°C° 0 mm 1 mps 725 mmHg 78%
    21:00 +20°C° 0 mm 1 mps 725 mmHg 81%
    22:00 +19°C° 0 mm 1 mps 725 mmHg 82%
    23:00 +19°C° 0 mm 1 mps 725 mmHg 82%

    20 July, Saturday

    Time Temperature Precipitation Wind Pressure Humidity
    00:00 +19°C° 0 mm 1 mps 725 mmHg 83%
    01:00 +19°C° 0 mm 1 mps 725 mmHg 83%
    02:00 +18°C° 0 mm 1 mps 725 mmHg 84%
    03:00 +18°C° 0 mm 1 mps 724 mmHg 85%
    04:00 +19°C° 0 mm 1 mps 725 mmHg 82%
    05:00 +21°C° 0 mm 1 mps 725 mmHg 80%
    06:00 +22°C° 0 mm 1 mps 725 mmHg 77%
    07:00 +24°C° 0 mm 1 mps 725 mmHg 70%
    08:00 +25°C° 0 mm 2 mps 726 mmHg 63%
    09:00 +27°C° 0 mm 2 mps 726 mmHg 55%
    10:00 +28°C° 0 mm 3 mps 726 mmHg 51%
    11:00 +29°C° 0 mm 3 mps 726 mmHg 48%
    12:00 +30°C° 0 mm 4 mps 726 mmHg 44%
    13:00 +32°C° 0 mm 4 mps 726 mmHg 44%
    14:00 +32°C° 0 mm 4 mps 726 mmHg 44%
    15:00 +32°C° 0 mm 4 mps 725 mmHg 45%
    16:00 +30°C° 0 mm 3 mps 726 mmHg 52%
    17:00 +29°C° 0 mm 2 mps 726 mmHg 59%
    18:00 +28°C° 0 mm 1 mps 726 mmHg 67%
    19:00 +26°C° 0.1 mm 1 mps 726 mmHg 68%
    20:00 +25°C° 0.1 mm 1 mps 727 mmHg 69%
    21:00 +23°C° 0.1 mm 1 mps 727 mmHg 71%
    22:00 +23°C° 0 mm 1 mps 727 mmHg 72%
    23:00 +22°C° 0 mm 1 mps 727 mmHg 74%

    21 July, Sunday

    Time Temperature Precipitation Wind Pressure Humidity
    00:00 +21°C° 0 mm 1 mps 728 mmHg 75%
    01:00 +21°C° 0 mm 1 mps 728 mmHg 77%
    02:00 +21°C° 0 mm 1 mps 728 mmHg 78%
    03:00 +20°C° 0 mm 1 mps 728 mmHg 80%
    04:00 +21°C° 0 mm 1 mps 728 mmHg 79%
    05:00 +22°C° 0 mm 1 mps 728 mmHg 79%
    06:00 +23°C° 0 mm 1 mps 729 mmHg 78%
    07:00 +25°C° 0 mm 1 mps 729 mmHg 72%
    08:00 +27°C° 0 mm 1 mps 729 mmHg 65%
    09:00 +29°C° 0 mm 1 mps 729 mmHg 59%
    10:00 +30°C° 0 mm 1 mps 729 mmHg 56%
    11:00 +30°C° 0 mm 1 mps 729 mmHg 52%
    12:00 +31°C° 0 mm 1 mps 729 mmHg 49%
    13:00 +32°C° 0 mm 1 mps 729 mmHg 47%
    14:00 +32°C° 0 mm 1 mps 729 mmHg 45%
    15:00 +32°C° 0 mm 1 mps 728 mmHg 43%
    16:00 +31°C° 0 mm 1 mps 729 mmHg 50%
    17:00 +30°C° 0 mm 1 mps 729 mmHg 57%
    18:00 +29°C° 0 mm 1 mps 729 mmHg 65%
    19:00 +27°C° 0 mm 1 mps 729 mmHg 66%
    20:00 +25°C° 0 mm 1 mps 729 mmHg 68%
    21:00 +24°C° 0 mm 1 mps 729 mmHg 69%
    22:00 +23°C° 0 mm 1 mps 729 mmHg 72%
    23:00 +23°C° 0 mm 1 mps 729 mmHg 74%

    22 July, Monday

    Time Temperature Precipitation Wind Pressure Humidity
    00:00 +23°C° 0 mm 1 mps 729 mmHg 77%
    01:00 +22°C° 0 mm 1 mps 728 mmHg 77%
    02:00 +22°C° 0 mm 1 mps 728 mmHg 78%
    03:00 +22°C° 0 mm 1 mps 728 mmHg 78%
    04:00 +20°C° 0.1 mm 0 mps 728 mmHg 78%
    05:00 +21°C° 0.1 mm 0 mps 728 mmHg 78%
    06:00 +22°C° 0.1 mm 0 mps 728 mmHg 78%
    07:00 +24°C° 0 mm 0 mps 728 mmHg 71%
    08:00 +26°C° 0 mm 0 mps 728 mmHg 64%
    09:00 +30°C° 0 mm 1 mps 728 mmHg 57%
    10:00 +31°C° 0 mm 1 mps 728 mmHg 54%
    11:00 +32°C° 0 mm 1 mps 727 mmHg 52%
    12:00 +33°C° 0 mm 1 mps 727 mmHg 49%
    13:00 +33°C° 0 mm 1 mps 727 mmHg 48%
    14:00 +33°C° 0 mm 1 mps 727 mmHg 48%
    15:00 +33°C° 0 mm 1 mps 727 mmHg 48%
    16:00 +32°C° 0.4 mm 1 mps 727 mmHg 55%
    17:00 +31°C° 0.4 mm 1 mps 727 mmHg 63%
    18:00 +30°C° 0.4 mm 1 mps 726 mmHg 70%
    19:00 +28°C° 0.2 mm 1 mps 727 mmHg 72%
    20:00 +26°C° 0.2 mm 1 mps 727 mmHg 74%
    21:00 +25°C° 0.2 mm 1 mps 727 mmHg 76%
    22:00 +24°C° 0.1 mm 1 mps 727 mmHg 77%
    23:00 +24°C° 0.1 mm 1 mps 727 mmHg 78%
    Show more